TimeHST,TemperatureF,Dew PointF,Humidity,Sea Level PressureIn,VisibilityMPH,Wind Direction,Wind SpeedMPH,Gust SpeedMPH,PrecipitationIn,Events,Conditions,WindDirDegrees,DateUTC
12:53 AM,66.9,64.9,93,30.07,8.0,NNW,4.6,-,N/A,,Scattered Clouds,330,2013-01-01 10:53:00
1:53 AM,67.6,64.9,91,30.07,8.0,NW,5.8,-,N/A,,Scattered Clouds,320,2013-01-01 11:53:00
2:53 AM,66.9,64.9,93,30.06,10.0,NNW,8.1,-,N/A,,Partly Cloudy,340,2013-01-01 12:53:00
3:53 AM,68.0,66.0,93,30.06,10.0,North,6.9,-,N/A,,Partly Cloudy,350,2013-01-01 13:53:00
4:53 AM,68.0,66.0,93,30.07,10.0,NNW,6.9,-,N/A,,Partly Cloudy,340,2013-01-01 14:53:00
5:53 AM,68.2,66.0,93,30.07,10.0,NNW,5.8,-,N/A,,Partly Cloudy,340,2013-01-01 15:53:00
6:53 AM,66.9,66.0,97,30.08,10.0,NNW,3.5,-,N/A,,Scattered Clouds,330,2013-01-01 16:53:00
7:53 AM,68.0,66.0,93,30.09,10.0,Calm,Calm,-,N/A,,Scattered Clouds,0,2013-01-01 17:53:00
8:53 AM,73.0,66.9,81,30.12,10.0,NE,8.1,-,N/A,,Scattered Clouds,40,2013-01-01 18:53:00
9:53 AM,73.0,68.0,84,30.12,10.0,NNE,11.5,18.4,0.00,Rain,Light Rain,20,2013-01-01 19:53:00
10:53 AM,73.0,68.0,84,30.11,10.0,NNE,9.2,-,0.00,,Mostly Cloudy,30,2013-01-01 20:53:00
11:53 AM,70.0,69.1,97,30.09,5.0,NNE,12.7,-,0.00,Rain,Light Rain,30,2013-01-01 21:53:00
12:00 PM,69.8,69.8,100,30.08,5.0,NNE,11.5,-,0.00,Rain,Light Rain,30,2013-01-01 22:00:00
12:30 PM,71.6,68.0,88,30.07,10.0,NE,12.7,18.4,0.00,,Mostly Cloudy,40,2013-01-01 22:30:00
12:53 PM,72.0,66.9,84,30.05,10.0,North,11.5,18.4,0.00,,Mostly Cloudy,10,2013-01-01 22:53:00
1:53 PM,72.0,66.9,84,30.03,10.0,NNE,10.4,-,0.00,,Mostly Cloudy,20,2013-01-01 23:53:00
2:04 PM,71.6,66.2,83,30.03,10.0,North,12.7,-,N/A,,Mostly Cloudy,10,2013-01-02 00:04:00
2:30 PM,71.6,66.2,83,30.03,10.0,NNE,13.8,21.9,N/A,,Mostly Cloudy,20,2013-01-02 00:30:00
2:53 PM,71.1,64.9,81,30.03,10.0,NNE,13.8,-,N/A,,Mostly Cloudy,30,2013-01-02 00:53:00
3:53 PM,71.1,66.0,84,30.04,10.0,NNE,12.7,23.0,N/A,,Scattered Clouds,20,2013-01-02 01:53:00
4:53 PM,69.1,64.9,87,30.04,10.0,NE,17.3,-,N/A,,Mostly Cloudy,40,2013-01-02 02:53:00
5:53 PM,66.9,64.9,93,30.06,10.0,NNE,15.0,-,N/A,,Mostly Cloudy,30,2013-01-02 03:53:00
6:53 PM,66.0,64.9,96,30.08,10.0,North,9.2,-,N/A,,Mostly Cloudy,10,2013-01-02 04:53:00
7:53 PM,66.0,66.0,100,30.10,10.0,North,9.2,-,0.00,,Mostly Cloudy,360,2013-01-02 05:53:00
8:53 PM,64.9,64.9,100,30.11,10.0,ENE,3.5,-,0.00,Rain,Light Rain,60,2013-01-02 06:53:00
9:53 PM,72.0,64.9,78,30.11,10.0,NNE,6.9,-,0.00,Rain,Light Rain,20,2013-01-02 07:53:00
10:53 PM,71.4,61.9,72,30.11,10.0,North,9.2,-,0.00,,Mostly Cloudy,10,2013-01-02 08:53:00
11:53 PM,69.6,64.0,82,30.10,10.0,NNE,10.4,-,N/A,,Mostly Cloudy,20,2013-01-02 09:53:00